Regional Weather Roundup
Issued by NWS

Home | Current Version | Previous Version | Text Only | Print | Product List | Glossary Off
Versions: 1 2 3 4 5 6 7 8 9 10 11 12 13 14 15 16 17 18 19 20 21 22 23 24 25 26 27 28 29 30 31 32 33 34 35 36 37 38 39 40 41 42 43 44 45 46 47 48 49 50

000
ASUS45 KSLC 270810
RWRUT

UTAH REGIONAL WEATHER ROUNDUP
NATIONAL WEATHER SERVICE SALT LAKE CITY UT
200 AM MDT TUE JUN 27 2017

UTZ001>011-023>025-270900-

NORTHERN UTAH

CITY           SKY/WX    TMP DP  RH WIND       PRES   REMARKS
BRIGHAM CITY   MOCLDY    77  37  23 CALM      29.85F
HILL AFB       MOCLDY    77  40  26 NW13      29.89R
LOGAN          MOCLDY    70  47  43 NE12      29.89R
OGDEN          MOCLDY    77  44  30 N8        29.86R
SALT LAKE CITY MOCLDY    84  32  15 S17G29    29.81S
TOOELE VALLEY  PTCLDY    81  27  13 W12       29.86R
WENDOVER       NOT AVBL
HEBER CITY     PTCLDY    54  41  62 CALM      29.98F
WEST JORDAN    PTCLDY    80  46  30 SE21      29.86F

$$

UTZ011>015-024>027-270900-

CENTRAL/NORTHEAST UTAH

CITY           SKY/WX    TMP DP  RH WIND       PRES   REMARKS
PROVO AIRPORT  PTCLDY    67  42  40 MISG      29.90F
MOAB/CANYONLAN CLEAR     80  23  12 NW3       29.90R
DELTA          CLEAR     72  10   9 S13       29.94S
PRICE          CLEAR     73  25  16 NW6       30.02F
VERNAL         CLEAR     70  38  31 W6        29.97F

$$

UTZ013>016-019>022-027-270900-

SOUTHERN UTAH

CITY           SKY/WX    TMP DP  RH WIND       PRES   REMARKS
BRYCE CANYON   MOCLDY    44  19  36 W7        30.24F
CEDAR CITY     CLEAR     67  11  11 S8        30.05F
MILFORD        CLEAR     69  12  11 S15       29.98F
ST GEORGE      MOSUNNY   80  17   9 CALM      29.86S
HANKSVILLE     CLEAR     77  19  11 W5        29.94F
BLANDING       PTCLDY    71  30  21 SE7       30.16S

$$

REGIONAL REPORTS     COLORADO/ARIZONA

CITY           SKY/WX    TMP DP  RH WIND       PRES   REMARKS
CRAIG, CO      CLEAR     55  39  54 N7        30.07F
GRAND JUNCTION PTCLDY    78  28  16 SE9       29.95F
RIFLE, CO      CLOUDY    63  30  28 SE7       30.05F
MONTROSE, CO   CLEAR     70  32  24 E7        30.06F
CORTEZ, CO     CLEAR     72  37  28 W9        30.12S
COLORADO CITY    N/A     55  21  26 SE3       30.06F
PAGE, AZ       CLEAR     82  22  11 S5        29.96F
GRAND CANYON   CLEAR     50  23  34 CALM      30.21F
KINGMAN, AZ    CLEAR     78  22  12 S13       29.96S
FLAGSTAFF, AZ  CLEAR     55  25  31 CALM      30.26F

$$

REGIONAL REPORTS    NEVADA/IDAHO/WYOMING

CITY           SKY/WX    TMP DP  RH WIND       PRES   REMARKS
LAS VEGAS, NV  CLEAR     91  13   5 SW21G30   29.77F
ELY, NY        PTCLDY    69  33  26 W12       30.09S
ELKO, NV       MOCLDY    64  36  35 SW8       30.04R
POCATELLO, ID  CLOUDY    67  52  58 E8        29.92F
BURLEY, ID     CLOUDY    64  55  72 SW3       29.89R
FORT BRIDGER,    N/A     63  36  36 S12       30.12F
EVANSTON, WY   CLOUDY    62  38  40 SE9       30.07F
ROCK SPRINGS,  CLOUDY    70  34  26 S26G36    30.10F
KEMMERER, WY     N/A     64  32  29 SE5       30.10F

$$



USA.gov is the U.S. government's official web portal to all federal, state and local government web resources and services.